Namest Nad Oslav, Czech Republic

9:29 AM CEST on July 24, 2016 (GMT +0200)
Namest

Weather History for LKNA - September, 2013

Change the Weather History Date:

Friday, September 6, 2013

  Actual Average Record
Temperature  
Mean Temperature 64 °F -  
Max Temperature 73 °F - - ()
Min Temperature 55 °F - - ()
Degree Days  
Heating Degree Days 1    
Growing Degree Days 14 (Base 50)    
Moisture  
Dew Point 50 °F    
Average Humidity 62    
Maximum Humidity 77    
Minimum Humidity 46    
Precipitation  
Precipitation 0.00 in - - ()
Sea Level Pressure  
Sea Level Pressure 30.05 in    
Wind  
Wind Speed 6 mph ()    
Max Wind Speed 12 mph    
Max Gust Speed -    
T = Trace of Precipitation, MM = Missing Value Source: Averaged Metar Reports

Daily Weather History Graph

Daily Weather History Graph

Search for Another Location

Airport or City:

Trip Planner

Search our weather history database for the weather conditions in past years. The results will help you decide how hot, cold, wet, or windy it might be!

Date:

Astronomy

Sep. 06, 2013 Rise Set
Actual Time 6:18 AM CEST 7:27 PM CEST
Civil Twilight 5:46 AM CEST 8:00 PM CEST
Nautical Twilight 5:06 AM CEST 8:39 PM CEST
Astronomical Twilight 4:24 AM CEST 9:21 PM CEST
Moon 7:22 AM CEST (9/6) 7:30 PM CEST (9/6)
Length of Visible Light 14h 13m
Length of Day
13h 08m
New Moon, 1% of the Moon is Illuminated
Sep 6
New Moon
Sep 12
First Quarter
Sep 19
Full
Sep 27
Last Quarter
Oct 5
New

Hourly Weather History & Observations

Time (CEST) Temp. Dew Point Humidity Pressure Visibility Wind Dir Wind Speed Gust Speed Precip Events Conditions
12:00 AM 60.8 °F 51.8 °F 72% 30.09 in - East 5.8 mph - N/A   Clear
1:00 AM 59.0 °F 50.0 °F 72% 30.09 in - NE 3.5 mph - N/A   Clear
2:00 AM 57.2 °F 50.0 °F 77% 30.06 in - ENE 5.8 mph - N/A   Clear
3:00 AM 57.2 °F 50.0 °F 77% 30.06 in - ENE 5.8 mph - N/A   Clear
4:00 AM 57.2 °F 48.2 °F 72% 30.04 in - ENE 4.6 mph - N/A   Clear
5:00 AM 55.4 °F 48.2 °F 77% 30.04 in - ENE 5.8 mph - N/A   Clear
6:00 AM 55.4 °F 48.2 °F 77% 30.04 in - ENE 4.6 mph - N/A   Clear
7:00 AM 55.4 °F 48.2 °F 77% 30.04 in - East 6.9 mph - N/A   Clear
8:00 AM 57.2 °F 48.2 °F 72% 30.06 in - East 10.4 mph - N/A   Clear
9:00 AM 59.0 °F 50.0 °F 72% 30.06 in - East 10.4 mph - N/A   Clear
10:00 AM 62.6 °F 50.0 °F 63% 30.06 in - ESE 9.2 mph - N/A   Clear
11:00 AM 64.4 °F 48.2 °F 56% 30.06 in - ESE 9.2 mph - N/A   Clear
12:00 PM 66.2 °F 50.0 °F 56% 30.06 in - SE 10.4 mph - N/A   Clear
1:00 PM 69.8 °F 50.0 °F 49% 30.04 in - SE 11.5 mph - N/A   Clear
2:00 PM 69.8 °F 50.0 °F 49% 30.04 in - East 10.4 mph - N/A   Clear
3:00 PM 71.6 °F 51.8 °F 50% 30.04 in - SE 9.2 mph - N/A   Clear
4:00 PM 71.6 °F 50.0 °F 46% 30.04 in - SE 9.2 mph - N/A   Clear
5:00 PM 73.4 °F 51.8 °F 47% 30.01 in - ESE 9.2 mph - N/A   Clear
6:00 PM 71.6 °F 50.0 °F 46% 30.01 in - ESE 8.1 mph - N/A   Clear
7:00 PM 69.8 °F 50.0 °F 49% 30.01 in - ESE 5.8 mph - N/A   Clear
8:00 PM 68.0 °F 50.0 °F 52% 30.04 in - East 4.6 mph - N/A   Clear
9:00 PM 64.4 °F 50.0 °F 59% 30.04 in - East 4.6 mph - N/A   Clear
10:00 PM 64.4 °F 50.0 °F 59% 30.06 in - East 5.8 mph - N/A   Clear
11:00 PM 60.8 °F 50.0 °F 68% 30.06 in - East 5.8 mph - N/A   Clear